Orbital Elements at Epoch 2459000.5 (2020-May-31.0) TDB
Reference: JPL 17 (heliocentric ecliptic J2000)
Element | Value | Uncertainty (1-sigma) | Units |
e | .08185854736466518 | 4.3522e-08 | |
a | 2.776456111482653 | 1.8929e-08 | au |
q | 2.549179447374937 | 1.2524e-07 | au |
i | 2.441407858804509 | 4.6644e-06 | deg |
node | 252.98574978 | 0.00011627 | deg |
peri | 169.0273211544947 | 0.00012071 | deg |
M | 46.39297325339631 | 3.1221e-05 | deg |
tp | 2458782.736869110716 (2019-Oct-26.23686911) | 0.00014628 | TDB |
period | 1689.797433157689 4.63 | 1.728e-05 4.731e-08 | d yr |
n | .2130432872816451 | 2.1787e-09 | deg/d |
Q | 3.00373277559037 | 2.0478e-08 | au |
|
| | Orbit Determination Parameters
Additional Information
|